Preview of NWS' New Version of Forecast
This preview is not operational and should not be used for support decisions.

Regional Weather Roundup (RWR)

Issued by National Weather Service (NWS)

                            
000
ASUS46 KSEW 231310
RWRWA 

WASHINGTON REGIONAL WEATHER ROUNDUP
NATIONAL WEATHER SERVICE SEATTLE WA
600 AM PDT THU MAY 23 2019

NOTE:"FAIR" INDICATES FEW OR NO CLOUDS BELOW 12,000 FEET WITH NO 
SIGNIFICANT WEATHER AND/OR OBSTRUCTIONS TO VISIBILITY.

WAZ507-509-555>559-231400-
SEATTLE, TACOMA, EVERETT, AND VICINITY
  
CITY           SKY/WX    TMP DP  RH WIND       PRES   REMARKS
EVERETT        CLEAR     53  51  93 N6        30.06S                  
BOEING FIELD   CLEAR     54  50  86 CALM      30.06R                  
RENTON         CLEAR     55  52  89 CALM      30.06R FOG              
SEATAC AIRPORT FOG       53  51  93 S6        30.06R VSB 1/8          
JBLM-MCCHORD   FOG       52  52 100 S3        30.06S VSB 5/8          
PUYALLUP       CLOUDY    50  50 100 CALM      30.06S FOG              
BREMERTON      FOG       52  51  97 SW3       30.06S VSB<1/4          
JBLM-FT LEWIS  FOG       51  51 100 S3        30.06S VSB 1/2          
TACOMA NARROWS FOG       51  51 100 SW3       30.07R VSB 1/4          
$$
 
WAZ001-503-506-510-514-515-231400-
NORTH INTERIOR
  
CITY           SKY/WX    TMP DP  RH WIND       PRES   REMARKS
BELLINGHAM     MOCLDY    55  50  83 S5        30.04S                  
FRIDAY HARBOR  MOCLDY    52  49  89 CALM      30.05F                  
EASTSOUND      MOCLDY    54  52  94 S3        30.04S                  
PORT ANGELES   CLOUDY    50  50 100 W3        30.06F FOG              
EDIZ HOOK      CLOUDY    50  49  96 W7        30.06F                  
PORT TOWNSEND  CLOUDY    52  50  93 CALM      30.05S                  
NAS WHIDBEY    FOG       54  50  86 SW8       30.09F VSB 1            
ARLINGTON      CLEAR     51  50  96 CALM      30.06S                  
BURLINGTON     NOT AVBL                                               
$$
 
WAZ020-022-039-040-504-511-512-231400-
SOUTHWEST INTERIOR
  
CITY           SKY/WX    TMP DP  RH WIND       PRES   REMARKS
SHELTON        CLOUDY    53  50  89 SW10      30.04S                  
OLYMPIA        CLOUDY    51  51 100 SW5       30.06S FOG              
CHEHALIS       CLOUDY    54  52  94 CALM      30.07S                  
KELSO          CLOUDY    54  51  90 NW5       30.06S                  
VANCOUVER      CLOUDY    56  51  84 NW3       30.02F                  
SCAPPOOSE, OR  CLOUDY    57  51  80 N13       30.03S                  
PORTLAND, OR   CLOUDY    56  51  84 N3        30.03F                  
$$
 
WAZ021-516-517-231400-
WASHINGTON COAST
  
CITY           SKY/WX    TMP DP  RH WIND       PRES   REMARKS
FORKS          CLOUDY    51  51 100 CALM      30.06F FOG              
HOQUIAM        CLOUDY    52  52 100 NW3       30.07F FOG              
ASTORIA, OR    CLOUDY    53  50  89 NW5       30.07S                  
$$
 
WAZ019-023-024-040-567>569-231400-
CASCADE MOUNTAINS AND COLUMBIA GORGE
  
CITY           SKY/WX    TMP DP  RH WIND       PRES   REMARKS
STAMPEDE PASS  PTCLDY    50  44  80 W3        30.08S                  
TROUTDALE, OR  CLOUDY    56  52  86 CALM      30.03S                  
HOOD RIVER, OR SUNNY     46  45  93 SE3       30.01R                  
THE DALLES, OR CLEAR     54  49  83 NW9       29.96S                  
$$

WAZ026-027-041>044-520-521-231400-
EAST SLOPES
  
CITY           SKY/WX    TMP DP  RH WIND       PRES   REMARKS
OMAK           CLOUDY    49  40  71 CALM      30.04F                  
WENATCHEE      PTCLDY    50  42  74 W10       30.03S                  
ELLENSBURG     CLEAR     45  40  82 NE7       30.02S                  
YAKIMA         CLEAR     51  41  68 W9        29.99S                  
SUNNYSIDE ARPT SUNNY     49  43  80 CALM      29.95S                  
YAKIMA TC      FAIR      55  39  55 E8        29.98S                  
$$

WAZ028-034-035-231400-
COLUMBIA BASIN
  
CITY           SKY/WX    TMP DP  RH WIND       PRES   REMARKS
EPHRATA        CLEAR     57  37  47 N7        29.98F                  
MOSES LAKE     CLEAR     51  32  48 N9        29.99S                  
PASCO          CLEAR     49  41  74 N9        29.95S                  
RICHLAND ARPT  SUNNY     50  42  73 NW8       29.96S                  
HERMISTON, OR  CLEAR     45  43  93 S3        29.93S                  
$$

WAZ036>038-231400-
NORTHEAST WASHINGTON
  
CITY           SKY/WX    TMP DP  RH WIND       PRES   REMARKS
SPOKANE GEIGER MOCLDY    50  35  56 N5        30.02F                  
SPOKANE FELTS  PTCLDY    47  40  76 CALM      30.03S                  
FAIRCHILD AFB  PTCLDY    50  34  55 NE7       30.01F                  
COEURDALENE,ID CLEAR     49  36  61 NE14      30.03F                  
DEER PARK      PTCLDY    46  36  68 CALM      30.03F                  
$$

WAZ029>033-231400-
SOUTHEAST WASHINGTON
  
CITY           SKY/WX    TMP DP  RH WIND       PRES   REMARKS
PULLMAN        CLEAR     51  36  56 CALM      29.98F                  
LEWISTON, ID   CLEAR     49  38  65 S5        29.96F                  
WALLA WALLA    CLEAR     50  42  74 SE5       29.93S                  
PENDLETON, OR  CLEAR     45  42  89 S7        29.93S                  
$$